[[{"header":{"parameterUnit":"m.s-1","parameterCategory":1,"la1":30.2991,"la2":30.254,"lo1":-89.0895,"lo2":-89.0444,"dy":0.0017,"dx":0.0017,"nx":28,"ny":28,"refTime":"2024-02-25T09:00:00:Z","depth":0,"parameterNumber":2,"parameterNumberName":"U-component_of_WINDS"},"data":[0,0,0,0,0,0,0,0,0,0,0,0,0,0,0,0,0,0,0,0,0,0,0,0,0,0,0,0,0,0,0,0,0,0,0,0,0,0,0,0,0,0,0,0,0,0,0,0,0,0,0,0,0,0,0,0,0,0,1.016,1.0161,0,1.0259,1.026,1.0261,1.0269,1.0267,1.0266,1.0265,1.0371,1.0374,1.0378,0,0,0,0,0,0,0,0,0,0,0,0,0,0.9983,0.9986,1.016,1.0161,1.0162,1.0259,1.026,1.0261,1.0269,1.0267,1.0266,1.0265,1.0369,1.0374,1.0379,0,0,0,0,0,0,0,0,0,0,0,0,0,1.0069,0.9987,1.0159,1.0177,1.018,1.0258,1.026,1.0262,1.0269,1.0267,1.0266,1.0264,1.0368,1.0373,1.0379,1.0448,0,0,1.0397,1.0399,0,0,0,0,0,0,0,0,1.0064,1.0075,1.0174,1.0176,1.0179,1.025,1.0236,1.0324,1.0269,1.0235,1.0265,1.0263,1.0332,1.0341,1.0363,1.0453,1.0457,1.0397,1.0401,1.0403,1.0405,0,0,0,0,0,0,0,1.0058,1.0071,1.0199,1.0175,1.0179,1.0182,1.0193,1.0253,1.0292,1.0238,1.0239,1.025,1.0333,1.0357,1.0365,1.0459,1.0397,1.0402,1.0406,1.0408,1.0614,1.0616,0,0,0,0,0,0,1.0048,1.0066,1.0196,1.0202,1.0116,1.0187,1.0198,1.0229,1.0291,1.0299,1.0252,1.025,1.0348,1.0359,1.0369,1.0456,1.0403,1.0409,1.0412,1.0612,1.0615,1.0617,0,0,0,0,0,0,1.0044,1.0059,1.0192,1.0134,1.0151,1.0192,1.0226,1.0232,1.0256,1.0301,1.0309,1.0269,1.0347,1.0361,1.0429,1.046,1.0411,1.0416,1.061,1.0613,1.0616,1.063,0,0,0,0,0,0,1.0039,1.0058,1.0083,1.0135,1.0154,1.0248,1.0227,1.0235,1.0265,1.0264,1.0319,1.0327,1.0347,1.042,1.0435,1.0467,1.0421,1.0607,1.0611,1.0615,1.0627,1.0633,1.0638,0,0,0,0,0,1.0032,1.0082,1.0084,1.0099,1.0186,1.025,1.0261,1.0282,1.0267,1.0294,1.0324,1.0325,1.0454,1.0427,1.0443,1.0478,1.0605,1.061,1.0614,1.0624,1.0632,1.0638,0,0,0,0,0,0,1.0034,1.0089,1.0092,1.016,1.02,1.0251,1.0285,1.0289,1.0335,1.0333,1.0358,1.0371,1.0439,1.0465,1.0434,1.055,1.0528,1.0536,1.053,1.0538,1.0543,1.0536,1.0426,0,0,0,0,0,1.0042,1.0087,1.0134,1.019,1.021,1.0244,1.0272,1.0285,1.0329,1.0346,1.0381,1.0424,1.0475,1.0507,1.0556,1.063,1.0644,1.0662,1.0668,1.0673,1.068,1.0725,1.0734,1.0632,1.0632,1.0632,0,0,1.0059,1.0095,1.0122,1.0191,1.0224,1.0273,1.0258,1.0309,1.0347,1.0354,1.0421,1.0448,1.0498,1.057,1.0604,1.0594,1.0711,1.0678,1.0682,1.0687,1.073,1.074,1.0749,1.0635,1.0634,1.0634,0,0,1.0116,1.0147,1.0198,1.0231,1.0281,1.0304,1.0316,1.0367,1.0386,1.0453,1.046,1.0506,1.0591,1.0628,1.0658,1.0732,1.0736,1.0747,1.0778,1.0821,1.0829,1.0837,1.0866,1.0876,1.0754,1.0754,1.0754,0,1.0132,1.0204,1.0224,1.0276,1.0308,1.0316,1.0371,1.0402,1.0466,1.0488,1.0477,1.0587,1.0621,1.0703,1.0722,1.0744,1.0762,1.0741,1.0826,1.0834,1.0841,1.087,1.088,1.0755,1.0755,1.0755,1.0755,0,1.0222,1.0273,1.0309,1.037,1.0405,1.0458,1.0489,1.0523,1.0533,1.0558,1.0628,1.067,1.0729,1.0749,1.0759,1.0834,1.0827,1.082,1.08,1.0852,1.0879,1.089,1.0757,1.0756,1.0756,1.0756,0,0,1.0282,1.0355,1.0368,1.0398,1.0455,1.0495,1.055,1.0607,1.0637,1.0681,1.073,1.0803,1.0798,1.0832,1.0847,1.0885,1.0945,1.0874,1.0876,1.0888,1.1034,1.1041,1.1053,1.0948,1.095,1.0952,1.1031,0,1.0347,1.0443,1.0465,1.0549,1.0598,1.0608,1.0656,1.0697,1.0723,1.077,1.0798,1.0851,1.0839,1.086,1.0897,1.093,1.0975,1.0924,1.0996,1.0999,1.0985,1.1066,1.1073,1.1146,1.1042,1.1043,1.1045,0,1.0436,1.0483,1.0571,1.0625,1.0646,1.0689,1.0745,1.0788,1.0837,1.0853,1.0892,1.0904,1.0964,1.094,1.1025,1.099,1.1021,1.1042,1.1045,1.1054,1.1026,1.108,1.1169,1.1181,1.1061,1.106,1.1059,0,1.0474,1.0559,1.0624,1.0649,1.0712,1.0742,1.077,1.0817,1.0851,1.0901,1.0924,1.0979,1.1011,1.1055,1.1083,1.1062,1.1167,1.1144,1.1185,1.1184,1.1208,1.1206,1.1305,1.1224,1.1224,1.1223,1.1223,0,1.0546,1.0601,1.0643,1.0683,1.0745,1.0771,1.0833,1.0861,1.0903,1.0951,1.0963,1.1008,1.1041,1.1092,1.1114,1.1183,1.1196,1.1213,1.1219,1.1214,1.1212,1.1236,1.1232,1.1226,1.1226,1.1225,1.1225,0,1.0599,1.0629,1.0701,1.0756,1.0771,1.0815,1.0863,1.0904,1.093,1.0991,1.1007,1.1049,1.1109,1.1141,1.1216,1.1231,1.131,1.1312,1.1294,1.1297,1.1337,1.1334,1.1456,1.1475,1.1378,1.1379,1.138,0,1.0644,1.0687,1.0746,1.0779,1.0808,1.086,1.0895,1.0922,1.0959,1.102,1.1054,1.1115,1.1165,1.1262,1.13,1.1359,1.1364,1.1403,1.1373,1.1367,1.1368,1.1366,1.1372,1.1408,1.1409,1.141,1.1411,0,1.0721,1.0735,1.0784,1.0841,1.0883,1.0928,1.0973,1.1,1.1035,1.1076,1.1138,1.1177,1.1255,1.1316,1.1379,1.141,1.1418,1.142,1.1433,1.1429,1.1418,1.1427,1.1311,1.1417,1.1416,1.1416,1.1416,1.1415,1.0774,1.0814,1.0863,1.0919,1.0956,1.0998,1.1041,1.1073,1.1124,1.1189,1.1203,1.1269,1.132,1.1404,1.1438,1.1492,1.1484,1.1502,1.1507,1.1512,1.1516,1.1407,1.1503,1.1503,1.1503,1.1502,1.1502,0,1.0854,1.0887,1.0938,1.1002,1.1047,1.1049,1.11,1.1138,1.1196,1.1242,1.1292,1.1365,1.1426,1.1469,1.1532,1.1567,1.1573,1.1583,1.1582,1.159,1.1517,1.1501,1.1578,1.1578,1.1578,1.1578,1.1578,1.1578,1.0902,1.097,1.099,1.1078,1.1111,1.1175,1.1205,1.1245,1.1283,1.1364,1.1414,1.1442,1.1489,1.1555,1.1612,1.1624,1.1647,1.1658,1.167,1.1602,1.1594,1.1587,1.1572,1.1662,1.1662,1.1739,1.1739,1.174]},{"header":{"parameterUnit":"m.s-1","parameterCategory":1,"la1":30.2991,"la2":30.254,"lo1":-89.0895,"lo2":-89.0444,"dy":0.0017,"dx":0.0017,"nx":28,"ny":28,"refTime":"2024-02-25T09:00:00:Z","depth":0,"parameterNumber":3,"parameterNumberName":"V-component_of_WINDS"},"data":[0,0,0,0,0,0,0,0,0,0,0,0,0,0,0,0,0,0,0,0,0,0,0,0,0,0,0,0,0,0,0,0,0,0,0,0,0,0,0,0,0,0,0,0,0,0,0,0,0,0,0,0,0,0,0,0,0,0,3.7528,3.753,0,3.7651,3.7652,3.7653,3.7667,3.7666,3.7665,3.7664,3.779,3.7794,3.7799,0,0,0,0,0,0,0,0,0,0,0,0,0,3.731,3.7314,3.7528,3.753,3.7531,3.765,3.7652,3.7654,3.7667,3.7666,3.7664,3.7663,3.7789,3.7794,3.7799,0,0,0,0,0,0,0,0,0,0,0,0,0,3.7416,3.7315,3.7528,3.7552,3.7556,3.765,3.7652,3.7654,3.7668,3.7666,3.7664,3.7662,3.7787,3.7793,3.78,3.7879,0,0,3.7821,3.7824,0,0,0,0,0,0,0,0,3.741,3.7424,3.7547,3.7551,3.7555,3.7642,3.7622,3.773,3.7668,3.7625,3.7664,3.7661,3.7742,3.7753,3.778,3.7885,3.789,3.7821,3.7825,3.7828,3.783,0,0,0,0,0,0,0,3.7402,3.7419,3.7577,3.7549,3.7554,3.7558,3.7571,3.7642,3.7693,3.7629,3.763,3.7644,3.7744,3.7773,3.7783,3.7892,3.7821,3.7827,3.7831,3.7834,3.8072,3.8074,0,0,0,0,0,0,3.739,3.7412,3.7573,3.758,3.7476,3.7564,3.7578,3.7616,3.7692,3.7702,3.7646,3.7645,3.7762,3.7775,3.7787,3.7887,3.7828,3.7835,3.7838,3.807,3.8073,3.8075,0,0,0,0,0,0,3.7385,3.7404,3.7568,3.7497,3.7518,3.757,3.7611,3.7619,3.7648,3.7705,3.7714,3.7666,3.7761,3.7778,3.7857,3.7892,3.7838,3.7844,3.8067,3.8071,3.8074,3.8086,0,0,0,0,0,0,3.7379,3.7402,3.7432,3.7497,3.7522,3.7634,3.7613,3.7623,3.766,3.7659,3.7726,3.7735,3.7761,3.7847,3.7863,3.79,3.7849,3.8064,3.8069,3.8073,3.8083,3.809,3.8095,0,0,0,0,0,3.7371,3.743,3.7433,3.7452,3.7559,3.7636,3.765,3.7678,3.7662,3.7693,3.773,3.7733,3.7885,3.7855,3.7874,3.7913,3.8062,3.8068,3.8072,3.808,3.8088,3.8095,0,0,0,0,0,0,3.7366,3.7439,3.7443,3.7524,3.7574,3.7638,3.7678,3.7685,3.7741,3.7738,3.7771,3.7786,3.7865,3.7896,3.7861,3.7995,3.7972,3.7981,3.7972,3.798,3.7986,3.7977,3.7855,0,0,0,0,0,3.7375,3.743,3.7491,3.7557,3.7582,3.7626,3.766,3.7678,3.7731,3.7752,3.7794,3.7846,3.7906,3.7944,3.8002,3.8087,3.8104,3.8124,3.813,3.8135,3.8143,3.8194,3.8205,3.8092,3.8092,3.8092,0,0,3.7393,3.7439,3.7472,3.7557,3.7598,3.7656,3.7643,3.7704,3.7749,3.7761,3.7839,3.7872,3.7933,3.8016,3.8055,3.8045,3.8178,3.8142,3.8145,3.8151,3.8201,3.8211,3.8221,3.8095,3.8095,3.8094,0,0,3.7456,3.7495,3.7556,3.7598,3.766,3.7689,3.7704,3.7768,3.7791,3.787,3.7881,3.7935,3.8036,3.808,3.8115,3.8198,3.8205,3.8216,3.8249,3.8299,3.8308,3.8316,3.8348,3.8359,3.8224,3.8224,3.8224,0,3.747,3.7558,3.7587,3.7649,3.7688,3.7702,3.7766,3.7805,3.7882,3.7909,3.7897,3.8027,3.8068,3.8164,3.8185,3.8212,3.8232,3.8209,3.8304,3.8312,3.832,3.8352,3.8364,3.8225,3.8225,3.8225,3.8225,0,3.7575,3.7636,3.7678,3.7754,3.7797,3.7859,3.7899,3.7939,3.7954,3.7985,3.8068,3.8118,3.8188,3.8212,3.8226,3.8311,3.8303,3.8297,3.8275,3.8332,3.8362,3.8374,3.8227,3.8226,3.8226,3.8226,0,0,3.7637,3.773,3.7745,3.7781,3.7852,3.7901,3.7965,3.8034,3.807,3.8123,3.818,3.8267,3.8263,3.8303,3.8323,3.8366,3.8433,3.8355,3.8357,3.837,3.8533,3.8539,3.8552,3.8437,3.8439,3.8441,3.8529,0,3.771,3.7825,3.7854,3.7953,3.8012,3.8028,3.8084,3.8135,3.8167,3.8222,3.8257,3.832,3.8308,3.8333,3.8376,3.8415,3.8466,3.8409,3.8492,3.8495,3.8478,3.8568,3.8573,3.8654,3.8541,3.8543,3.8544,0,3.781,3.7867,3.7972,3.8039,3.8065,3.8115,3.8183,3.8235,3.8294,3.8314,3.8361,3.8377,3.8447,3.8421,3.8519,3.848,3.8516,3.854,3.8544,3.8554,3.8524,3.8583,3.868,3.8693,3.8563,3.8561,3.856,0,3.7848,3.7952,3.8029,3.8059,3.8138,3.8174,3.8208,3.8266,3.8306,3.8366,3.8393,3.8459,3.8496,3.8548,3.8582,3.8559,3.8679,3.8655,3.87,3.87,3.8726,3.8724,3.8832,3.8745,3.8745,3.8745,3.8744,0,3.7928,3.7992,3.8048,3.8095,3.8169,3.8203,3.8275,3.831,3.8362,3.8418,3.8435,3.8488,3.8529,3.8588,3.8616,3.8695,3.8711,3.8731,3.8738,3.8731,3.8729,3.8756,3.8752,3.8748,3.8747,3.8747,3.8746,0,3.7983,3.8023,3.8108,3.8177,3.8196,3.8248,3.8307,3.8355,3.8388,3.8459,3.8478,3.853,3.8601,3.8641,3.8728,3.8747,3.8837,3.884,3.8817,3.8821,3.8865,3.8861,3.8996,3.9017,3.8913,3.8914,3.8915,0,3.8032,3.8082,3.8157,3.8197,3.8232,3.8295,3.8337,3.8373,3.8417,3.849,3.853,3.8602,3.8661,3.8773,3.882,3.8888,3.8895,3.8937,3.8905,3.8897,3.8899,3.8896,3.8903,3.8943,3.8944,3.8945,3.8945,0,3.8116,3.8134,3.8194,3.8263,3.8313,3.8368,3.8423,3.8454,3.85,3.8549,3.8622,3.8668,3.8759,3.8831,3.8904,3.8941,3.8953,3.8955,3.897,3.8964,3.895,3.8961,3.8835,3.8952,3.8952,3.8951,3.8951,3.895,3.8172,3.8219,3.828,3.8347,3.8393,3.8445,3.8494,3.8535,3.8596,3.8673,3.8691,3.8769,3.883,3.8929,3.8969,3.9031,3.9023,3.9043,3.9049,3.9054,3.9057,3.8939,3.9044,3.9044,3.9044,3.9044,3.9043,0,3.8259,3.83,3.8362,3.8439,3.8493,3.8498,3.8561,3.8606,3.8674,3.873,3.8789,3.8874,3.8945,3.8998,3.9071,3.9111,3.9118,3.9129,3.9128,3.9137,3.9059,3.904,3.9122,3.9122,3.9122,3.9122,3.9122,3.9122,3.8311,3.8391,3.8417,3.8522,3.8562,3.8639,3.8674,3.8723,3.8769,3.8864,3.8923,3.8957,3.9013,3.9091,3.9157,3.9171,3.9198,3.9209,3.9224,3.915,3.9142,3.9134,3.9116,3.9214,3.9214,3.9297,3.9298,3.9298]}]]